| time (UTC) | temp F | wind direction | speed MPH | gust MPH | rain 1hr in | rain 24hr in | rain mn in | humidity % | barometer mb |
| 20260506102045 | 64 | 0 | 1.0 | 4.0 | 0.00 | 0.00 | 0.00 | 76 | 1008.0 |
| 20260506101557 | 64 | 46 | 0.0 | 3.0 | 0.00 | 0.00 | 0.00 | 76 | 1008.0 |
| 20260506101044 | 64 | 0 | 0.0 | 3.0 | 0.00 | 0.00 | 0.00 | 76 | 1007.9 |
| 20260506100544 | 64 | 219 | 0.0 | 3.0 | 0.00 | 0.00 | 0.00 | 75 | 1008.0 |
| 20260506095544 | 65 | 199 | 1.0 | 5.0 | 0.00 | 0.00 | 0.00 | 74 | 1007.9 |
| 20260506095045 | 65 | 221 | 0.0 | 5.0 | 0.00 | 0.00 | 0.00 | 74 | 1007.9 |
| 20260506094551 | 65 | 223 | 0.0 | 5.0 | 0.00 | 0.00 | 0.00 | 74 | 1007.8 |
| 20260506094045 | 65 | 202 | 1.0 | 5.0 | 0.00 | 0.00 | 0.00 | 73 | 1007.7 |
| 20260506093541 | 65 | 215 | 2.0 | 7.0 | 0.00 | 0.00 | 0.00 | 73 | 1008.0 |
| 20260506093051 | 65 | 209 | 2.0 | 7.0 | 0.00 | 0.00 | 0.00 | 73 | 1008.1 |
| 20260506092545 | 64 | 218 | 2.0 | 5.0 | 0.00 | 0.00 | 0.00 | 73 | 1008.1 |
| 20260506092045 | 64 | 209 | 2.0 | 5.0 | 0.00 | 0.00 | 0.00 | 73 | 1008.0 |
| 20260506091551 | 64 | 215 | 2.0 | 5.0 | 0.00 | 0.00 | 0.00 | 73 | 1008.0 |
| 20260506091045 | 64 | 211 | 2.0 | 4.0 | 0.00 | 0.00 | 0.00 | 73 | 1007.9 |
| 20260506090545 | 64 | 214 | 1.0 | 3.0 | 0.00 | 0.00 | 0.00 | 73 | 1007.9 |
| 20260506090052 | 64 | 214 | 1.0 | 3.0 | 0.00 | 0.00 | 0.00 | 72 | 1007.8 |
| 20260506085545 | 64 | 227 | 0.0 | 3.0 | 0.00 | 0.00 | 0.00 | 71 | 1007.9 |
| 20260506085045 | 64 | 179 | 0.0 | 2.0 | 0.00 | 0.00 | 0.00 | 70 | 1008.1 |
| 20260506084612 | 64 | 0 | 0.0 | 2.0 | 0.00 | 0.00 | 0.00 | 70 | 1008.1 |
| 20260506084045 | 65 | 228 | 1.0 | 2.0 | 0.00 | 0.00 | 0.00 | 69 | 1008.1 |
| 20260506083544 | 66 | 0 | 0.0 | 4.0 | 0.00 | 0.00 | 0.00 | 68 | 1008.0 |
| 20260506083050 | 66 | 0 | 1.0 | 4.0 | 0.00 | 0.00 | 0.00 | 66 | 1008.1 |
| 20260506082544 | 67 | 207 | 2.0 | 8.0 | 0.00 | 0.00 | 0.00 | 66 | 1008.2 |
| 20260506082042 | 67 | 200 | 3.0 | 8.0 | 0.00 | 0.00 | 0.00 | 66 | 1008.1 |
| 20260506081554 | 66 | 224 | 1.0 | 4.0 | 0.00 | 0.00 | 0.00 | 67 | 1008.1 |
| 20260506081045 | 66 | 209 | 1.0 | 5.0 | 0.00 | 0.00 | 0.00 | 67 | 1008.2 |
| 20260506080541 | 66 | 89 | 1.0 | 5.0 | 0.00 | 0.00 | 0.00 | 67 | 1008.2 |
| 20260506073051 | 67 | 0 | 0.0 | 5.0 | 0.00 | 0.00 | 0.00 | 64 | 1008.2 |
| 20260506072545 | 67 | 211 | 1.0 | 5.0 | 0.00 | 0.00 | 0.00 | 64 | 1008.3 |
| 20260506072044 | 67 | 209 | 1.0 | 4.0 | 0.00 | 0.00 | 0.00 | 63 | 1008.2 |
| 20260506071553 | 67 | 0 | 1.0 | 4.0 | 0.00 | 0.00 | 0.00 | 63 | 1008.2 |
| 20260506071045 | 67 | 223 | 2.0 | 4.0 | 0.00 | 0.00 | 0.00 | 64 | 1008.1 |
| 20260506070545 | 67 | 219 | 1.0 | 4.0 | 0.00 | 0.00 | 0.00 | 64 | 1008.1 |
| 20260506062044 | 68 | 211 | 2.0 | 7.0 | 0.00 | 0.00 | 0.00 | 61 | 1008.7 |
| 20260506061548 | 68 | 216 | 2.0 | 7.0 | 0.00 | 0.00 | 0.00 | 61 | 1008.7 |
| 20260506061045 | 68 | 235 | 2.0 | 5.0 | 0.00 | 0.00 | 0.00 | 60 | 1008.8 |
| 20260506060543 | 69 | 236 | 2.0 | 5.0 | 0.00 | 0.00 | 0.00 | 60 | 1008.5 |
| 20260506051044 | 69 | 209 | 2.0 | 6.0 | 0.00 | 0.00 | 0.00 | 59 | 1009.0 |
| 20260506050544 | 69 | 215 | 1.0 | 5.0 | 0.00 | 0.00 | 0.00 | 59 | 1009.1 |
| 20260506045045 | 69 | 220 | 1.0 | 5.0 | 0.00 | 0.00 | 0.00 | 58 | 1009.1 |
| 20260506044651 | 69 | 211 | 1.0 | 6.0 | 0.00 | 0.00 | 0.00 | 57 | 1009.2 |
| 20260506044044 | 69 | 186 | 1.0 | 6.0 | 0.00 | 0.00 | 0.00 | 57 | 1009.2 |
| 20260506043544 | 69 | 185 | 1.0 | 4.0 | 0.00 | 0.00 | 0.00 | 57 | 1009.1 |
| 20260506043049 | 69 | 212 | 1.0 | 4.0 | 0.00 | 0.00 | 0.00 | 57 | 1009.1 |
| 20260506042545 | 69 | 211 | 1.0 | 4.0 | 0.00 | 0.00 | 0.00 | 56 | 1009.1 |
| 20260506042044 | 70 | 223 | 0.0 | 5.0 | 0.00 | 0.00 | 0.00 | 56 | 1009.1 |
| 20260506041601 | 70 | 227 | 1.0 | 5.0 | 0.00 | 0.00 | 0.00 | 54 | 1009.1 |
| 20260506041044 | 70 | 0 | 0.0 | 4.0 | 0.00 | 0.00 | 0.00 | 54 | 1009.0 |
| 20260506040548 | 71 | 209 | 1.0 | 5.0 | 0.00 | 0.00 | 0.00 | 53 | 1008.9 |
| 20260506040057 | 71 | 211 | 2.0 | 5.0 | 0.00 | 0.00 | 0.00 | 52 | 1008.8 |
| 20260506035545 | 71 | 214 | 1.0 | 4.0 | 0.00 | 0.00 | 0.00 | 51 | 1008.9 |
| 20260506035046 | 71 | 213 | 1.0 | 5.0 | 0.00 | 0.00 | 0.00 | 52 | 1008.8 |
| 20260506034624 | 71 | 211 | 1.0 | 5.0 | 0.00 | 0.00 | 0.00 | 51 | 1008.8 |
| 20260506034046 | 71 | 213 | 2.0 | 5.0 | 0.00 | 0.00 | 0.00 | 51 | 1008.8 |
| 20260506033544 | 71 | 213 | 0.0 | 6.0 | 0.00 | 0.00 | 0.00 | 52 | 1008.7 |
| 20260506033058 | 71 | 209 | 1.0 | 6.0 | 0.00 | 0.00 | 0.00 | 52 | 1008.7 |
| 20260506032545 | 71 | 225 | 2.0 | 4.0 | 0.00 | 0.00 | 0.00 | 51 | 1008.6 |
| 20260506032045 | 71 | 0 | 1.0 | 4.0 | 0.00 | 0.00 | 0.00 | 52 | 1008.7 |
| 20260506031553 | 71 | 213 | 0.0 | 5.0 | 0.00 | 0.00 | 0.00 | 51 | 1008.7 |
| 20260506031046 | 72 | 213 | 1.0 | 5.0 | 0.00 | 0.00 | 0.00 | 50 | 1008.7 |
| 20260506030544 | 72 | 271 | 1.0 | 5.0 | 0.00 | 0.00 | 0.00 | 50 | 1008.7 |
| 20260506030053 | 72 | 205 | 2.0 | 5.0 | 0.00 | 0.00 | 0.00 | 49 | 1008.8 |
| 20260506025544 | 72 | 205 | 1.0 | 7.0 | 0.00 | 0.00 | 0.00 | 49 | 1008.6 |
| 20260506025048 | 72 | 221 | 2.0 | 7.0 | 0.00 | 0.00 | 0.00 | 49 | 1008.6 |
| 20260506024553 | 72 | 207 | 1.0 | 5.0 | 0.00 | 0.00 | 0.00 | 50 | 1008.7 |
| 20260506024046 | 72 | 214 | 1.0 | 5.0 | 0.00 | 0.00 | 0.00 | 50 | 1008.7 |
| 20260506023546 | 72 | 215 | 1.0 | 4.0 | 0.00 | 0.00 | 0.00 | 49 | 1008.6 |
| 20260506023110 | 73 | 205 | 2.0 | 4.0 | 0.00 | 0.00 | 0.00 | 48 | 1008.6 |
| 20260506022544 | 73 | 194 | 2.0 | 4.0 | 0.00 | 0.00 | 0.00 | 49 | 1008.6 |
| 20260506022044 | 73 | 0 | 0.0 | 12.0 | 0.00 | 0.00 | 0.00 | 47 | 1008.5 |
| 20260506021550 | 74 | 221 | 2.0 | 12.0 | 0.00 | 0.00 | 0.00 | 46 | 1008.6 |
| 20260506021043 | 73 | 202 | 3.0 | 7.0 | 0.00 | 0.00 | 0.00 | 46 | 1008.5 |
| 20260506020546 | 73 | 223 | 1.0 | 8.0 | 0.00 | 0.00 | 0.00 | 46 | 1008.6 |
| 20260506020055 | 73 | 223 | 1.0 | 8.0 | 0.00 | 0.00 | 0.00 | 47 | 1008.4 |
| 20260506015545 | 73 | 227 | 2.0 | 9.0 | 0.00 | 0.00 | 0.00 | 45 | 1008.5 |
| 20260506015045 | 73 | 216 | 1.0 | 9.0 | 0.00 | 0.00 | 0.00 | 45 | 1008.5 |
| 20260506014553 | 74 | 217 | 2.0 | 8.0 | 0.00 | 0.00 | 0.00 | 44 | 1008.5 |
| 20260506014044 | 73 | 219 | 2.0 | 6.0 | 0.00 | 0.00 | 0.00 | 44 | 1008.5 |
| 20260506013544 | 74 | 209 | 1.0 | 6.0 | 0.00 | 0.00 | 0.00 | 44 | 1008.3 |
| 20260506013055 | 74 | 226 | 2.0 | 6.0 | 0.00 | 0.00 | 0.00 | 44 | 1008.3 |
| 20260506012545 | 74 | 217 | 2.0 | 6.0 | 0.00 | 0.00 | 0.00 | 44 | 1008.2 |
| 20260506012048 | 73 | 217 | 2.0 | 9.0 | 0.00 | 0.00 | 0.00 | 44 | 1008.2 |
| 20260506011617 | 74 | 248 | 2.0 | 9.0 | 0.00 | 0.00 | 0.00 | 44 | 1008.0 |
| 20260506011044 | 74 | 205 | 1.0 | 7.0 | 0.00 | 0.00 | 0.00 | 43 | 1008.0 |
| 20260506010544 | 74 | 201 | 2.0 | 5.0 | 0.00 | 0.00 | 0.00 | 44 | 1008.1 |
| 20260506005544 | 73 | 0 | 0.0 | 4.0 | 0.00 | 0.00 | 0.00 | 44 | 1007.8 |
| 20260506005044 | 73 | 0 | 0.0 | 4.0 | 0.00 | 0.00 | 0.00 | 44 | 1007.9 |
| 20260506004626 | 74 | 208 | 0.0 | 4.0 | 0.00 | 0.00 | 0.00 | 43 | 1007.9 |
| 20260506004045 | 74 | 207 | 0.0 | 5.0 | 0.00 | 0.00 | 0.00 | 44 | 1007.7 |
| 20260506003545 | 74 | 0 | 2.0 | 5.0 | 0.00 | 0.00 | 0.00 | 43 | 1007.6 |
| 20260506003109 | 74 | 220 | 1.0 | 4.0 | 0.00 | 0.00 | 0.00 | 43 | 1007.7 |
| 20260506002544 | 75 | 220 | 1.0 | 6.0 | 0.00 | 0.00 | 0.00 | 42 | 1007.6 |
| 20260506002045 | 75 | 211 | 1.0 | 6.0 | 0.00 | 0.00 | 0.00 | 42 | 1007.7 |
| 20260506001554 | 75 | 212 | 2.0 | 6.0 | 0.00 | 0.00 | 0.00 | 42 | 1007.5 |
| 20260506001045 | 75 | 212 | 2.0 | 6.0 | 0.00 | 0.00 | 0.00 | 41 | 1007.4 |
| 20260506000545 | 75 | 216 | 2.0 | 5.0 | 0.00 | 0.00 | 0.00 | 41 | 1007.5 |
| 20260506000053 | 75 | 209 | 2.0 | 5.0 | 0.00 | 0.00 | 0.00 | 43 | 1007.6 |
| 20260505235545 | 75 | 0 | 0.0 | 6.0 | 0.00 | 0.00 | 0.00 | 43 | 1007.4 |
| 20260505235044 | 76 | 207 | 2.0 | 6.0 | 0.00 | 0.00 | 0.00 | 41 | 1007.4 |
| 20260505234614 | 75 | 202 | 2.0 | 6.0 | 0.00 | 0.00 | 0.00 | 42 | 1007.4 |
| 20260505234045 | 75 | 215 | 1.0 | 6.0 | 0.00 | 0.00 | 0.00 | 42 | 1007.3 |
| 20260505233544 | 76 | 269 | 2.0 | 6.0 | 0.00 | 0.00 | 0.00 | 41 | 1007.4 |
| 20260505233052 | 76 | 238 | 3.0 | 6.0 | 0.00 | 0.00 | 0.00 | 40 | 1007.3 |
| 20260505232545 | 76 | 208 | 3.0 | 9.0 | 0.00 | 0.00 | 0.00 | 40 | 1007.2 |
| 20260505232045 | 77 | 211 | 3.0 | 9.0 | 0.00 | 0.00 | 0.00 | 39 | 1007.2 |
| 20260505231551 | 77 | 190 | 3.0 | 8.0 | 0.00 | 0.00 | 0.00 | 39 | 1007.0 |
| 20260505231043 | 77 | 236 | 3.0 | 12.0 | 0.00 | 0.00 | 0.00 | 40 | 1007.0 |
| 20260505230543 | 77 | 213 | 4.0 | 12.0 | 0.00 | 0.00 | 0.00 | 39 | 1006.9 |
| 20260505230049 | 77 | 216 | 2.0 | 8.0 | 0.00 | 0.00 | 0.00 | 39 | 1007.0 |
| 20260505225544 | 77 | 221 | 3.0 | 8.0 | 0.00 | 0.00 | 0.00 | 40 | 1007.0 |
| 20260505225044 | 77 | 248 | 3.0 | 9.0 | 0.00 | 0.00 | 0.00 | 39 | 1006.8 |
| 20260505224551 | 78 | 175 | 3.0 | 12.0 | 0.00 | 0.00 | 0.00 | 38 | 1006.8 |
| 20260505224043 | 78 | 236 | 4.0 | 12.0 | 0.00 | 0.00 | 0.00 | 38 | 1006.6 |
| 20260505223544 | 78 | 200 | 4.0 | 10.0 | 0.00 | 0.00 | 0.00 | 37 | 1006.6 |
| 20260505223049 | 78 | 203 | 3.0 | 10.0 | 0.00 | 0.00 | 0.00 | 38 | 1006.6 |
| 20260505222544 | 78 | 221 | 3.0 | 9.0 | 0.00 | 0.00 | 0.00 | 38 | 1006.5 |
| 20260505222044 | 79 | 222 | 2.0 | 11.0 | 0.00 | 0.00 | 0.00 | 37 | 1006.5 |
| 20260505221549 | 79 | 250 | 3.0 | 11.0 | 0.00 | 0.00 | 0.00 | 37 | 1006.5 |
| 20260505221044 | 78 | 261 | 3.0 | 10.0 | 0.00 | 0.00 | 0.00 | 37 | 1006.5 |
| 20260505220544 | 79 | 229 | 3.0 | 10.0 | 0.00 | 0.00 | 0.00 | 36 | 1006.4 |
| 20260505215544 | 79 | 239 | 3.0 | 10.0 | 0.00 | 0.00 | 0.00 | 36 | 1006.1 |
| 20260505215044 | 79 | 148 | 3.0 | 9.0 | 0.00 | 0.00 | 0.00 | 36 | 1006.1 |
| 20260505214601 | 79 | 217 | 3.0 | 16.0 | 0.00 | 0.00 | 0.00 | 35 | 1005.9 |
| 20260505214044 | 79 | 207 | 3.0 | 16.0 | 0.00 | 0.00 | 0.00 | 36 | 1005.9 |
| 20260505213544 | 79 | 227 | 4.0 | 16.0 | 0.00 | 0.00 | 0.00 | 34 | 1006.1 |
| 20260505213101 | 79 | 222 | 3.0 | 9.0 | 0.00 | 0.00 | 0.00 | 36 | 1006.2 |
| 20260505212543 | 79 | 171 | 3.0 | 11.0 | 0.00 | 0.00 | 0.00 | 35 | 1006.2 |
| 20260505212044 | 80 | 272 | 3.0 | 11.0 | 0.00 | 0.00 | 0.00 | 35 | 1006.0 |
| 20260505211554 | 80 | 208 | 4.0 | 10.0 | 0.00 | 0.00 | 0.00 | 34 | 1005.9 |
| 20260505211044 | 80 | 254 | 3.0 | 8.0 | 0.00 | 0.00 | 0.00 | 35 | 1006.0 |
| 20260505210544 | 80 | 259 | 3.0 | 8.0 | 0.00 | 0.00 | 0.00 | 36 | 1006.0 |
| 20260505210050 | 81 | 244 | 4.0 | 11.0 | 0.00 | 0.00 | 0.00 | 35 | 1006.0 |
| 20260505205544 | 81 | 263 | 5.0 | 11.0 | 0.00 | 0.00 | 0.00 | 34 | 1005.8 |
| 20260505205045 | 81 | 241 | 4.0 | 12.0 | 0.00 | 0.00 | 0.00 | 35 | 1005.6 |
| 20260505204558 | 81 | 212 | 6.0 | 12.0 | 0.00 | 0.00 | 0.00 | 33 | 1005.5 |
| 20260505204046 | 82 | 221 | 4.0 | 9.0 | 0.00 | 0.00 | 0.00 | 35 | 1005.7 |
| 20260505203544 | 81 | 279 | 3.0 | 11.0 | 0.00 | 0.00 | 0.00 | 35 | 1005.7 |
| 20260505203051 | 81 | 245 | 3.0 | 12.0 | 0.00 | 0.00 | 0.00 | 37 | 1005.6 |
| 20260505202545 | 81 | 242 | 4.0 | 12.0 | 0.00 | 0.00 | 0.00 | 38 | 1005.9 |
| 20260505202046 | 81 | 211 | 4.0 | 12.0 | 0.00 | 0.00 | 0.00 | 37 | 1005.7 |
| 20260505201550 | 81 | 300 | 5.0 | 12.0 | 0.00 | 0.00 | 0.00 | 36 | 1005.8 |
| 20260505201044 | 81 | 213 | 4.0 | 13.0 | 0.00 | 0.00 | 0.00 | 36 | 1005.8 |
| 20260505200545 | 80 | 251 | 4.0 | 13.0 | 0.00 | 0.00 | 0.00 | 36 | 1006.0 |
| 20260505200056 | 80 | 250 | 3.0 | 14.0 | 0.00 | 0.00 | 0.00 | 36 | 1006.2 |
| 20260505195545 | 81 | 204 | 5.0 | 14.0 | 0.00 | 0.00 | 0.00 | 35 | 1006.2 |
| 20260505195044 | 82 | 239 | 4.0 | 14.0 | 0.00 | 0.00 | 0.00 | 35 | 1006.1 |
| 20260505194551 | 82 | 195 | 4.0 | 14.0 | 0.00 | 0.00 | 0.00 | 35 | 1006.1 |
| 20260505194046 | 82 | 290 | 4.0 | 12.0 | 0.00 | 0.00 | 0.00 | 35 | 1006.3 |
| 20260505193544 | 82 | 267 | 4.0 | 10.0 | 0.00 | 0.00 | 0.00 | 35 | 1006.2 |
| 20260505193055 | 82 | 203 | 2.0 | 11.0 | 0.00 | 0.00 | 0.00 | 37 | 1006.3 |
| 20260505192544 | 82 | 225 | 3.0 | 11.0 | 0.00 | 0.00 | 0.00 | 37 | 1006.6 |
| 20260505192044 | 82 | 198 | 2.0 | 10.0 | 0.00 | 0.00 | 0.00 | 40 | 1006.5 |
| 20260505191557 | 81 | 215 | 3.0 | 10.0 | 0.00 | 0.00 | 0.00 | 38 | 1006.7 |
| 20260505191044 | 82 | 331 | 4.0 | 11.0 | 0.00 | 0.00 | 0.00 | 37 | 1006.7 |
| 20260505190548 | 82 | 202 | 5.0 | 12.0 | 0.00 | 0.00 | 0.00 | 37 | 1006.6 |
| 20260505190049 | 81 | 269 | 5.0 | 12.0 | 0.00 | 0.00 | 0.00 | 36 | 1006.8 |
| 20260505185544 | 82 | 212 | 4.0 | 12.0 | 0.00 | 0.00 | 0.00 | 37 | 1007.0 |
| 20260505185045 | 82 | 288 | 5.0 | 12.0 | 0.00 | 0.00 | 0.00 | 36 | 1007.0 |
| 20260505184549 | 82 | 226 | 3.0 | 11.0 | 0.00 | 0.00 | 0.00 | 39 | 1007.0 |
| 20260505184046 | 83 | 29 | 4.0 | 12.0 | 0.00 | 0.00 | 0.00 | 38 | 1007.0 |
| 20260505183545 | 82 | 200 | 5.0 | 12.0 | 0.00 | 0.00 | 0.00 | 37 | 1007.1 |
| 20260505183049 | 81 | 289 | 3.0 | 10.0 | 0.00 | 0.00 | 0.00 | 39 | 1007.3 |
| 20260505182544 | 81 | 229 | 5.0 | 13.0 | 0.00 | 0.00 | 0.00 | 38 | 1007.4 |
| 20260505182047 | 81 | 262 | 5.0 | 13.0 | 0.00 | 0.00 | 0.00 | 37 | 1007.4 |
| 20260505181550 | 81 | 272 | 4.0 | 10.0 | 0.00 | 0.00 | 0.00 | 40 | 1007.4 |
| 20260505181043 | 81 | 236 | 3.0 | 10.0 | 0.00 | 0.00 | 0.00 | 40 | 1007.4 |
| 20260505180543 | 81 | 234 | 3.0 | 12.0 | 0.00 | 0.00 | 0.00 | 42 | 1007.6 |
| 20260505180056 | 81 | 227 | 5.0 | 12.0 | 0.00 | 0.00 | 0.00 | 42 | 1007.5 |
| 20260505175544 | 81 | 210 | 4.0 | 12.0 | 0.00 | 0.00 | 0.00 | 41 | 1007.4 |
| 20260505175047 | 81 | 217 | 4.0 | 13.0 | 0.00 | 0.00 | 0.00 | 40 | 1007.4 |
| 20260505174609 | 81 | 225 | 6.0 | 13.0 | 0.00 | 0.00 | 0.00 | 40 | 1007.4 |
| 20260505174044 | 82 | 192 | 4.0 | 10.0 | 0.00 | 0.00 | 0.00 | 43 | 1007.6 |
| 20260505173544 | 81 | 213 | 3.0 | 9.0 | 0.00 | 0.00 | 0.00 | 43 | 1007.5 |
| 20260505173049 | 81 | 210 | 4.0 | 9.0 | 0.00 | 0.00 | 0.00 | 42 | 1007.6 |
| 20260505172544 | 81 | 202 | 2.0 | 10.0 | 0.00 | 0.00 | 0.00 | 44 | 1007.6 |
| 20260505172044 | 80 | 224 | 3.0 | 10.0 | 0.00 | 0.00 | 0.00 | 43 | 1007.7 |
| 20260505171550 | 80 | 198 | 4.0 | 9.0 | 0.00 | 0.00 | 0.00 | 45 | 1007.8 |
| 20260505171045 | 80 | 219 | 3.0 | 8.0 | 0.00 | 0.00 | 0.00 | 44 | 1007.9 |
| 20260505170545 | 80 | 197 | 3.0 | 10.0 | 0.00 | 0.00 | 0.00 | 44 | 1007.9 |
| 20260505170122 | 80 | 333 | 3.0 | 10.0 | 0.00 | 0.00 | 0.00 | 46 | 1007.9 |
| 20260505165544 | 79 | 232 | 4.0 | 8.0 | 0.00 | 0.00 | 0.00 | 45 | 1008.2 |
| 20260505165044 | 80 | 238 | 3.0 | 6.0 | 0.00 | 0.00 | 0.00 | 47 | 1008.2 |
| 20260505164550 | 80 | 237 | 1.0 | 10.0 | 0.00 | 0.00 | 0.00 | 45 | 1008.2 |
| 20260505164044 | 79 | 0 | 3.0 | 10.0 | 0.00 | 0.00 | 0.00 | 45 | 1008.3 |
| 20260505163542 | 78 | 271 | 3.0 | 10.0 | 0.00 | 0.00 | 0.00 | 46 | 1008.3 |
| 20260505163051 | 78 | 282 | 3.0 | 9.0 | 0.00 | 0.00 | 0.00 | 45 | 1008.6 |
| 20260505162543 | 78 | 219 | 4.0 | 8.0 | 0.00 | 0.00 | 0.00 | 46 | 1008.8 |
| 20260505162044 | 78 | 226 | 3.0 | 8.0 | 0.00 | 0.00 | 0.00 | 48 | 1008.7 |
| 20260505161602 | 78 | 204 | 2.0 | 7.0 | 0.00 | 0.00 | 0.00 | 47 | 1008.8 |
| 20260505161045 | 77 | 207 | 3.0 | 7.0 | 0.00 | 0.00 | 0.00 | 48 | 1008.9 |
| 20260505160549 | 77 | 250 | 3.0 | 10.0 | 0.00 | 0.00 | 0.00 | 48 | 1009.0 |
| 20260505153057 | 74 | 292 | 3.0 | 9.0 | 0.00 | 0.00 | 0.00 | 52 | 1009.5 |
| 20260505152543 | 75 | 188 | 3.0 | 9.0 | 0.00 | 0.00 | 0.00 | 50 | 1009.4 |
| 20260505152046 | 75 | 215 | 3.0 | 8.0 | 0.00 | 0.00 | 0.00 | 51 | 1009.4 |
| 20260505151554 | 75 | 248 | 3.0 | 9.0 | 0.00 | 0.00 | 0.00 | 52 | 1009.5 |
| 20260505151044 | 75 | 192 | 4.0 | 10.0 | 0.00 | 0.00 | 0.00 | 54 | 1009.6 |
| 20260505150544 | 74 | 188 | 3.0 | 10.0 | 0.00 | 0.00 | 0.00 | 54 | 1009.5 |
| 20260505140545 | 71 | 223 | 2.0 | 6.0 | 0.00 | 0.00 | 0.00 | 60 | 1009.9 |
| 20260505124549 | 62 | 202 | 2.0 | 6.0 | 0.00 | 0.00 | 0.00 | 74 | 1009.9 |
| 20260505124045 | 62 | 210 | 1.0 | 4.0 | 0.00 | 0.00 | 0.00 | 75 | 1010.0 |
| 20260505123544 | 61 | 211 | 1.0 | 3.0 | 0.00 | 0.00 | 0.00 | 76 | 1009.9 |
| 20260505123109 | 61 | 221 | 0.0 | 3.0 | 0.00 | 0.00 | 0.00 | 77 | 1009.9 |
| 20260505122544 | 60 | 0 | 0.0 | 3.0 | 0.00 | 0.00 | 0.00 | 78 | 1009.6 |
| 20260505122044 | 60 | 218 | 1.0 | 3.0 | 0.00 | 0.00 | 0.00 | 79 | 1009.6 |
| 20260505121553 | 59 | 218 | 1.0 | 3.0 | 0.00 | 0.00 | 0.00 | 80 | 1009.7 |
| 20260505121044 | 59 | 218 | 1.0 | 5.0 | 0.00 | 0.00 | 0.00 | 80 | 1009.8 |
| 20260505120544 | 58 | 218 | 1.0 | 5.0 | 0.00 | 0.00 | 0.00 | 81 | 1009.8 |
| 20260505120052 | 58 | 217 | 2.0 | 5.0 | 0.00 | 0.00 | 0.00 | 82 | 1009.7 |
| 20260505115544 | 57 | 0 | 0.0 | 0.0 | 0.00 | 0.00 | 0.00 | 83 | 1009.7 |
| 20260505115044 | 56 | 0 | 0.0 | 0.0 | 0.00 | 0.00 | 0.00 | 85 | 1009.7 |
| 20260505114610 | 56 | 0 | 0.0 | 0.0 | 0.00 | 0.00 | 0.00 | 86 | 1009.7 |
| 20260505114045 | 55 | 0 | 0.0 | 0.0 | 0.00 | 0.00 | 0.00 | 87 | 1010.0 |
| 20260505113548 | 54 | 0 | 0.0 | 0.0 | 0.00 | 0.00 | 0.00 | 89 | 1010.0 |
| 20260505113047 | 54 | 0 | 0.0 | 0.0 | 0.00 | 0.00 | 0.00 | 89 | 1009.9 |
| 20260505112544 | 53 | 0 | 0.0 | 0.0 | 0.00 | 0.00 | 0.00 | 89 | 1009.8 |
| 20260505112044 | 53 | 0 | 0.0 | 0.0 | 0.00 | 0.00 | 0.00 | 89 | 1009.7 |
| 20260505111604 | 53 | 0 | 0.0 | 0.0 | 0.00 | 0.00 | 0.00 | 88 | 1009.7 |
| 20260505111047 | 53 | 0 | 0.0 | 0.0 | 0.00 | 0.00 | 0.00 | 88 | 1009.8 |
| 20260505110543 | 53 | 0 | 0.0 | 0.0 | 0.00 | 0.00 | 0.00 | 87 | 1009.7 |